|
|
Asteroid 2012 UT136
(Preview)
Orbital elements:
2012 UT136 Earth MOID = 0.1213 AU
Epoch 2012 Sept. 30.0 TT = JDT 2456200.5 MPC
M 292.57927 (2000.0) P Q
n 0.57989654 Peri. 21.71224 -0.84130320 -0.52923210
a 1.4241936 Node 125.86156 +0.47381727 -0.82000723
e 0.5791780 Incl. 7.80805 +0.26020401 -0.21794847
P 1.70 H 21....
|
Blobrana
|
0
|
|
|
|
|
Asteroid 2012 US136
(Preview)
Orbital elements:
2012 US136 Earth MOID = 0.0850 AU
Epoch 2012 Sept. 30.0 TT = JDT 2456200.5 MPC
M 1.14168 (2000.0) P Q
n 0.10270219 Peri. 279.35556 +0.16735650 +0.98587690
a 4.5159548 Node 0.45196 -0.24827211 +0.04823810
e 0.9160122 Incl. 51.91573 -0.95412408 +0.16037404
P 9.60 H 15.9 G...
|
Blobrana
|
0
|
|
|
|
|
Asteroid 2012 UY136
(Preview)
Orbital elements:
2012 UY136 Earth MOID = 0.0152 AU
Epoch 2012 Sept. 30.0 TT = JDT 2456200.5 MPC
M 355.29778 (2000.0) P Q
n 0.43406166 Peri. 169.97902 +0.96256203 -0.26847148
a 1.7275678 Node 205.68891 +0.24234374 +0.91413750
e 0.4156798 Incl. 4.94710 +0.12142428 +0.30376916
P 2.27 H 26...
|
Blobrana
|
0
|
|
|
|
|
Asteroid 2012 UA69
(Preview)
Orbital elements:
2012 UA69 Earth MOID = 0.0045 AU
Epoch 2012 Sept. 30.0 TT = JDT 2456200.5 MPC
M 4.54232 (2000.0) P Q
n 0.26415929 Peri. 151.32880 +0.94294131 +0.33273194
a 2.4056113 Node 189.26159 -0.31820610 +0.88967727
e 0.5982033 Incl. 4.38101 -0.09801309 +0.31267204
P 3.73 H 23.8 G...
|
Blobrana
|
1
|
|
|
|
|
Asteroid 2012 UR136
(Preview)
Orbital elements:
2012 UR136 PHA, Earth MOID = 0.0368 AU
Epoch 2012 Sept. 30.0 TT = JDT 2456200.5 MPC
M 45.19763 (2000.0) P Q
n 0.37520844 Peri. 202.57907 +0.34350165 +0.93326652
a 1.9037985 Node 87.64088 -0.84481315 +0.35588726
e 0.4539019 Incl. 6.03098 -0.41024062 +0.04855773
P 2.63 H...
|
Blobrana
|
0
|
|
|
|
|
Asteroid 2012 UY68
(Preview)
Orbital elements:
2012 UY68 Earth MOID = 0.0170 AU
Epoch 2012 Sept. 30.0 TT = JDT 2456200.5 MPC
M 289.76542 (2000.0) P Q
n 0.77451142 Peri. 35.18336 -0.27999703 -0.95888549
a 1.1743138 Node 71.11559 +0.86919760 -0.27367699
e 0.2279558 Incl. 2.80260 +0.40755024 -0.07509676
P 1.27 H 25.1 G...
|
Blobrana
|
1
|
|
|
|
|
Asteroid 2012 US68
(Preview)
Orbital elements:
2012 US68 Earth MOID = 0.1730 AU
Epoch 2012 Sept. 30.0 TT = JDT 2456200.5 MPC
M 28.86060 (2000.0) P Q
n 0.24812982 Peri. 190.69375 -0.63903204 +0.71463475
a 2.5081302 Node 40.48807 -0.66941446 -0.33454053
e 0.9583022 Incl. 25.98638 -0.37884341 -0.61431247
P 3.97 H 18.3...
|
Blobrana
|
0
|
|
|
|
|
Asteroid 2012 UC69
(Preview)
Orbital elements:
2012 UC69 Earth MOID = 0.0269 AU
Epoch 2012 Sept. 30.0 TT = JDT 2456200.5 MPC
M 2.83837 (2000.0) P Q
n 0.31315667 Peri. 316.81778 +0.98453140 +0.16595169
a 2.1476406 Node 33.75039 -0.12014066 +0.87288765
e 0.5515233 Incl. 5.80532 -0.12753099 +0.45883241
P 3.15 H 22.8 G 0...
|
Blobrana
|
0
|
|
|
|
|
Asteroid 2012 UZ68
(Preview)
Orbital elements:
2012 UZ68 Earth MOID = 0.0160 AU
Epoch 2012 Sept. 30.0 TT = JDT 2456200.5 MPC
M 3.09879 (2000.0) P Q
n 0.36967234 Peri. 143.49078 +0.98617263 +0.16109146
a 1.9227585 Node 207.31602 -0.16489537 +0.93043990
e 0.4956750 Incl. 4.86249 -0.01652429 +0.32913695
P 2.67 H 24.6 G...
|
Blobrana
|
0
|
|
|
|
|
TNO 2012 UT68
(Preview)
Orbital elements:
2012 UT68
Epoch 2012 Sept. 30.0 TT = JDT 2456200.5 MPC
M 356.04549 (2000.0) P Q
n 0.01070014 Peri. 5.62111 +0.65197461 -0.73556394
a 20.3959078 Node 43.87218 +0.68491583 +0.46717546
e 0.3810605 Incl. 15.40059 +0.32529897 +0.49060451
P 92.11 H 9.4 G 0.15 U 4 MPEC 2012 - U8...
|
Blobrana
|
0
|
|
|
|
|
Asteroid 1992 JD
(Preview)
The 26 - 59 metre wide asteroid 1992 JD will make a close pass (75.7 lunar distances, 0.1946 au), travelling at 8.29 km/second, to the Earth-Moon system on the 24th October, 2012 @ 21:15 UT ±10:48. See more The Lunar Distance (LD), the distance between Earth and the Moon, equals 384,401 km, (or 0.0025...
|
Blobrana
|
0
|
|
|
|
|
Asteroid 2012 UB69
(Preview)
Orbital elements:
2012 UB69 Earth MOID = 0.1113 AU
Epoch 2012 Sept. 30.0 TT = JDT 2456200.5 MPC
M 344.73948 (2000.0) P Q
n 0.31957433 Peri. 204.23486 +0.64604163 -0.73057290
a 2.1187910 Node 207.25335 +0.75513561 +0.65398675
e 0.4911207 Incl. 28.87301 +0.11135721 -0.19637865
P 3.08 H 22...
|
Blobrana
|
0
|
|
|
|
|
Asteroid 2012 UU68
(Preview)
Orbital elements:
2012 UU68 Earth MOID = 0.0057 AU
Epoch 2012 Sept. 30.0 TT = JDT 2456200.5 MPC
M 239.56985 (2000.0) P Q
n 1.08067220 Peri. 292.77409 -0.89500732 -0.44167116
a 0.9404594 Node 221.08863 +0.43609479 -0.83706334
e 0.2282221 Incl. 5.44442 +0.09371887 -0.32288009
P 0.91 H 23....
|
Blobrana
|
0
|
|
|
|
|
Asteroid 2012 SF51
(Preview)
Orbital elements:
2012 SF51 Earth MOID = 0.1737 AU
Epoch 2012 Sept. 30.0 TT = JDT 2456200.5 MPC
M 277.45430 (2000.0) P Q
n 0.24932859 Peri. 156.88075 -0.92742167 -0.37393631
a 2.5000843 Node 1.24286 +0.26174194 -0.66375719
e 0.6908196 Incl. 21.04652 +0.26717073 -0.64776386
P 3.95 H 15.5...
|
Blobrana
|
1
|
|
|
|
|
Asteroid 2008 CT1
(Preview)
The 8 - 18 metre wide asteroid 2008 CT1 will make a close pass (26.2 lunar distances, 0.0674 au), travelling at 15.82 km/second, to the Earth-Moon system on the 22nd October, 2012 @ 20:31 UT ±15:38. See more The Lunar Distance (LD), the distance between Earth and the Moon, equals 384,401 km, (or 0.002...
|
Blobrana
|
0
|
|
|